This is the latest recevied weather packets stored in our database for station/object KE4AMH. If no packets are shown the sender has not sent any weather packets the latest 10 day(s).
| Time | Temp. | Humidity | Pressure | Rain* | Wind** | Luminosity | Snow |
|---|---|---|---|---|---|---|---|
| 1777580335 | 23.89° C | 64% | 1009.4 hPa | 0 mm | - | 155 W/m² | - |
| 1777580032 | 23.89° C | 64% | 1009.3 hPa | 0 mm | - | 199 W/m² | - |
| 1777579728 | 23.89° C | 63% | 1009.4 hPa | 0 mm | - | 239 W/m² | - |
| 1777579426 | 23.89° C | 66% | 1009.5 hPa | 0 mm | - | 225 W/m² | - |
| 1777579122 | 23.89° C | 64% | 1009.5 hPa | 0 mm | - | 339 W/m² | - |
| 1777578821 | 23.89° C | 66% | 1009.5 hPa | 0 mm | - | 207 W/m² | - |
| 1777578517 | 23.33° C | 67% | 1009.6 hPa | 0 mm | - | 322 W/m² | - |
| 1777578212 | 23.33° C | 64% | 1009.4 hPa | 0 mm | - | 177 W/m² | - |
| 1777577908 | 23.89° C | 65% | 1009.4 hPa | 0 mm | - | 177 W/m² | - |
| 1777577604 | 24.44° C | 64% | 1009.6 hPa | 0 mm | - | 331 W/m² | - |
| 1777577301 | 23.89° C | 63% | 1009.5 hPa | 0 mm | - | 429 W/m² | - |
| 1777576997 | 24.44° C | 66% | 1009.4 hPa | 0 mm | - | 533 W/m² | - |
| 1777576694 | 24.44° C | 64% | 1009.6 hPa | 0 mm | - | 516 W/m² | - |
| 1777576392 | 22.78° C | 69% | 1009.6 hPa | 0 mm | - | 482 W/m² | - |
| 1777576090 | 22.78° C | 71% | 1009.7 hPa | 0 mm | - | 179 W/m² | - |
| 1777575785 | 22.78° C | 72% | 1010 hPa | 0 mm | - | 146 W/m² | - |
| 1777575482 | 23.33° C | 72% | 1009.9 hPa | 0 mm | - | 163 W/m² | - |
| 1777575178 | 23.89° C | 70% | 1009.9 hPa | 0 mm | - | 157 W/m² | - |
| 1777574874 | 23.89° C | 68% | 1010 hPa | 0 mm | - | 280 W/m² | - |
| 1777574571 | 23.33° C | 70% | 1010.1 hPa | 0 mm | - | 245 W/m² | - |
| 1777574267 | 22.78° C | 68% | 1009.9 hPa | 0 mm | - | 436 W/m² | - |
| 1777573962 | 22.22° C | 70% | 1010 hPa | 0 mm | - | 236 W/m² | - |
| 1777573658 | 22.78° C | 72% | 1010.1 hPa | 0 mm | - | 138 W/m² | - |
| 1777573354 | 23.33° C | 73% | 1010 hPa | 0 mm | - | 157 W/m² | - |
| 1777573050 | 23.33° C | 71% | 1010.2 hPa | 0 mm | - | 630 W/m² | - |
* Rain latest hour (hover to see other rain measurements)
** Current wind speed in m/s (hover to see current wind gust speed)